Point Lay, AK

2:34 PM AKST on January 18, 2017 (GMT -0900)
Point Lay

Weather History for PPIZ - February, 2012

Change the Weather History Date:

Monday, February 27, 2012

  Actual Average Record
Temperature  
Mean Temperature -32 °F -  
Max Temperature -27 °F -6 °F 25 °F (2015)
Min Temperature -40 °F -16 °F -40 °F (2012)
Degree Days  
Heating Degree Days 98    
Moisture  
Dew Point -36 °F    
Average Humidity 69    
Maximum Humidity 69    
Minimum Humidity 69    
Precipitation  
Precipitation 0.00 in - - ()
Sea Level Pressure  
Sea Level Pressure 30.44 in    
Wind  
Wind Speed 5 mph (North)    
Max Wind Speed 9 mph    
Max Gust Speed -    
Visibility 9 miles    
Events      
Averages and records for this station are not official NWS values.
T = Trace of Precipitation, MM = Missing Value Source: NWS Daily Summary

Daily Weather History Graph

Daily Weather History Graph

Search for Another Location

Airport or City:

Trip Planner

Search our weather history database for the weather conditions in past years. The results will help you decide how hot, cold, wet, or windy it might be!

Date:

Astronomy

Feb. 27, 2012 Rise Set
Actual Time 9:28 AM AKST 6:43 PM AKST
Civil Twilight 8:26 AM AKST 7:45 PM AKST
Nautical Twilight 7:16 AM AKST 8:54 PM AKST
Astronomical Twilight 6:04 AM AKST 10:08 PM AKST
Moon 8:01 AM AKST (2/27) 3:46 AM AKST (2/27)
Length of Visible Light 11h 18m
Length of Day
9h 15m
Waxing Crescent, 30% of the Moon is Illuminated
Feb 27
Waxing Crescent
Feb 29
First Quarter
Mar 8
Full
Mar 14
Last Quarter
Mar 22
New

Hourly Weather History & Observations

Time (AKST) Temp. Windchill Dew Point Humidity Pressure Visibility Wind Dir Wind Speed Gust Speed Precip Events Conditions
12:56 AM -37.8 °F - - N/A% 30.24 in 10.0 mi North - - N/A   Clear
1:56 AM -36.9 °F -60.7 °F - N/A% 30.26 in 10.0 mi North 9.2 mph - N/A   Clear
2:56 AM -36.4 °F -58.5 °F - N/A% 30.27 in 10.0 mi NNE 8.1 mph - N/A   Clear
3:56 AM -35.9 °F - - N/A% 30.30 in 10.0 mi North - - N/A   Clear
4:56 AM -33.9 °F -51.8 °F - N/A% 30.32 in 10.0 mi North 5.8 mph - N/A   Clear
5:56 AM -35.9 °F -51.8 °F - N/A% 30.33 in 6.0 mi North 4.6 mph - N/A   Haze
6:38 AM -34.6 °F -52.6 °F - N/A% 30.33 in 10.0 mi North 5.8 mph - N/A   Mostly Cloudy
6:56 AM -33.9 °F -51.8 °F - N/A% 30.35 in 10.0 mi North 5.8 mph - N/A   Overcast
7:34 AM -34.6 °F -52.6 °F - N/A% 30.34 in 6.0 mi North 5.8 mph - N/A   Haze
7:56 AM -33.9 °F -51.8 °F - N/A% 30.37 in 7.0 mi North 5.8 mph - N/A   Scattered Clouds
8:19 AM -32.8 °F -50.5 °F - N/A% 30.36 in 8.0 mi North 5.8 mph - N/A   Mostly Cloudy
8:56 AM -32.8 °F - - N/A% 30.37 in 5.0 mi Calm Calm - N/A   Haze
9:24 AM -32.8 °F -50.5 °F - N/A% 30.38 in 7.0 mi NNE 5.8 mph - N/A   Scattered Clouds
9:56 AM -31.9 °F -47.1 °F - N/A% 30.40 in 10.0 mi North 4.6 mph - N/A   Partly Cloudy
10:56 AM -29.9 °F -42.0 °F - N/A% 30.42 in 10.0 mi North 3.5 mph - N/A   Scattered Clouds
11:20 AM -29.2 °F -48.1 °F - N/A% 30.41 in 8.0 mi North 6.9 mph - N/A   Partly Cloudy
11:56 AM -31.0 °F -46.1 °F - N/A% 30.44 in 10.0 mi North 4.6 mph - N/A   Partly Cloudy
12:56 PM -29.9 °F - - N/A% 30.46 in 10.0 mi Calm Calm - N/A   Clear
1:56 PM -29.9 °F - - N/A% 30.48 in 10.0 mi Calm Calm - N/A   Clear
2:56 PM -28.8 °F - -35.9 °F 69% 30.50 in 10.0 mi Calm Calm - N/A   Clear
3:56 PM -27.9 °F - -35.0 °F 69% 30.52 in 10.0 mi Calm Calm - N/A   Clear
4:56 PM -28.8 °F - -35.9 °F 69% 30.53 in 10.0 mi Calm Calm - N/A   Clear
5:56 PM -28.8 °F -45.8 °F -35.9 °F 69% 30.56 in 10.0 mi North 5.8 mph - N/A   Clear
6:56 PM -31.9 °F -47.1 °F - N/A% 30.57 in 10.0 mi NE 4.6 mph - N/A   Clear
7:56 PM -33.9 °F - - N/A% 30.60 in 10.0 mi Calm Calm - N/A   Clear
8:56 PM -31.9 °F - - N/A% 30.62 in 10.0 mi Calm Calm - N/A   Clear
9:56 PM -36.9 °F - - N/A% 30.63 in 10.0 mi Calm Calm - N/A   Clear
10:56 PM -38.9 °F -57.8 °F - N/A% 30.66 in 10.0 mi NE 5.8 mph - N/A   Clear
11:56 PM -40.0 °F - - N/A% 30.67 in 10.0 mi Calm Calm - N/A   Clear